Owatonna, MN

11:25 AM CDT on April 27, 2017 (GMT -0500)
Owatonna Degner Regional

Weather History for KOWA - April, 2013

Change the Weather History Date:

Sunday, April 21, 2013

  Actual Average Record
Temperature  
Mean Temperature 45 °F -  
Max Temperature 55 °F 61 °F 92 °F (1980)
Min Temperature 35 °F 37 °F 22 °F (1966)
Degree Days  
Heating Degree Days 20    
Moisture  
Dew Point 39 °F    
Average Humidity 83    
Maximum Humidity 94    
Minimum Humidity 61    
Precipitation  
Precipitation 0.39 in - - ()
Sea Level Pressure  
Sea Level Pressure 30.16 in    
Wind  
Wind Speed 13 mph (SSE)    
Max Wind Speed 31 mph    
Max Gust Speed 39 mph    
Visibility 10 miles    
Events Rain , Thunderstorm    
Averages and records for this station are not official NWS values.
T = Trace of Precipitation, MM = Missing Value Source: NWS Daily Summary

Daily Weather History Graph

Daily Weather History Graph

Search for Another Location

Airport or City:

Trip Planner

Search our weather history database for the weather conditions in past years. The results will help you decide how hot, cold, wet, or windy it might be!

Date:

Astronomy

Apr. 21, 2013 Rise Set
Actual Time 6:19 AM CDT 8:04 PM CDT
Civil Twilight 5:48 AM CDT 8:35 PM CDT
Nautical Twilight 5:11 AM CDT 9:13 PM CDT
Astronomical Twilight 4:30 AM CDT 9:53 PM CDT
Moon 3:42 PM CDT (4/21) 3:51 AM CDT (4/21)
Length of Visible Light 14h 47m
Length of Day
13h 45m
Waxing Gibbous, 80% of the Moon is Illuminated
Apr 21
Waxing Gibbous
Apr 25
Full
May 2
Last Quarter
May 9
New
May 17
First Quarter

Hourly Weather History & Observations

Time (CDT) Temp. Windchill Dew Point Humidity Pressure Visibility Wind Dir Wind Speed Gust Speed Precip Events Conditions
12:14 AM 37.4 °F 33.8 °F 28.4 °F 70% 30.28 in 10.0 mi East 4.6 mph - N/A   Overcast
12:34 AM 37.4 °F 34.9 °F 30.2 °F 75% 30.29 in 10.0 mi ESE 3.5 mph - N/A   Mostly Cloudy
12:54 AM 39.2 °F 31.6 °F 26.6 °F 61% 30.29 in 10.0 mi South 12.7 mph 24.2 mph N/A Rain Light Rain
1:14 AM 37.4 °F 28.5 °F 30.2 °F 75% 30.30 in 10.0 mi South 15.0 mph 19.6 mph N/A Rain Heavy Rain
1:34 AM 35.6 °F 28.6 °F 32.0 °F 87% 30.30 in 10.0 mi SSE 9.2 mph - N/A Rain Rain
1:54 AM 35.6 °F 31.7 °F 33.8 °F 93% 30.28 in 10.0 mi East 4.6 mph - N/A Rain Light Rain
2:14 AM 35.6 °F 30.7 °F 33.8 °F 93% 30.27 in 10.0 mi ESE 5.8 mph - N/A   Overcast
2:34 AM 35.6 °F 28.6 °F 33.8 °F 93% 30.27 in 10.0 mi ESE 9.2 mph - N/A   Mostly Cloudy
2:54 AM 37.4 °F 30.3 °F 32.0 °F 81% 30.25 in 10.0 mi ESE 10.4 mph - N/A   Mostly Cloudy
3:14 AM 37.4 °F 30.8 °F 30.2 °F 75% 30.26 in 10.0 mi SE 9.2 mph - N/A   Mostly Cloudy
3:34 AM 37.4 °F 30.8 °F 30.2 °F 75% 30.25 in 10.0 mi SE 9.2 mph - N/A   Overcast
3:54 AM 37.4 °F 30.8 °F 32.0 °F 81% 30.25 in 10.0 mi ESE 9.2 mph - N/A   Overcast
4:14 AM 37.4 °F 31.4 °F 32.0 °F 81% 30.25 in 10.0 mi ESE 8.1 mph - N/A   Overcast
4:34 AM 37.4 °F 30.8 °F 32.0 °F 81% 30.25 in 10.0 mi ESE 9.2 mph - N/A   Overcast
4:54 AM 37.4 °F 29.3 °F 32.0 °F 81% 30.24 in 10.0 mi ESE 12.7 mph - N/A   Mostly Cloudy
5:14 AM 37.4 °F 29.3 °F 32.0 °F 81% 30.24 in 10.0 mi ESE 12.7 mph 17.3 mph N/A   Overcast
5:34 AM 37.4 °F 30.3 °F 32.0 °F 81% 30.24 in 10.0 mi SE 10.4 mph - N/A   Overcast
5:54 AM 37.4 °F 29.3 °F 32.0 °F 81% 30.24 in 10.0 mi SE 12.7 mph 17.3 mph N/A Rain Light Rain
6:14 AM 37.4 °F 27.5 °F 33.8 °F 87% 30.24 in 10.0 mi SE 18.4 mph - N/A   Overcast
6:34 AM 37.4 °F 28.2 °F 33.8 °F 87% 30.24 in 10.0 mi SE 16.1 mph 27.6 mph N/A Rain Light Rain
6:54 AM 37.4 °F 27.2 °F 33.8 °F 87% 30.24 in 10.0 mi SE 19.6 mph 25.3 mph N/A Rain Light Rain
7:14 AM 37.4 °F 28.5 °F 33.8 °F 87% 30.24 in 10.0 mi SE 15.0 mph 23.0 mph N/A   Drizzle
7:34 AM 37.4 °F 27.5 °F 33.8 °F 87% 30.23 in 10.0 mi SE 18.4 mph 26.5 mph N/A   Overcast
7:54 AM 37.4 °F 27.2 °F 33.8 °F 87% 30.22 in 10.0 mi SE 19.6 mph 27.6 mph N/A   Overcast
8:14 AM 37.4 °F 26.4 °F 35.6 °F 93% 30.21 in 5.0 mi SE 23.0 mph 28.8 mph N/A Rain Light Rain
8:34 AM 37.4 °F 26.1 °F 35.6 °F 93% 30.20 in 7.0 mi SE 24.2 mph 29.9 mph 0.01 in Rain Light Rain
8:54 AM 37.4 °F 26.4 °F 35.6 °F 93% 30.20 in 10.0 mi SE 23.0 mph 33.4 mph 0.01 in   Overcast
9:14 AM 37.4 °F 26.4 °F 35.6 °F 93% 30.19 in 10.0 mi SE 23.0 mph 32.2 mph N/A   Light Drizzle
9:34 AM 39.2 °F 29.0 °F 35.6 °F 87% 30.19 in 10.0 mi SE 21.9 mph 29.9 mph N/A   Overcast
9:54 AM 39.2 °F 29.6 °F 35.6 °F 87% 30.18 in 10.0 mi SE 19.6 mph 27.6 mph N/A   Mostly Cloudy
10:14 AM 39.2 °F 28.7 °F 35.6 °F 87% 30.19 in 10.0 mi SE 23.0 mph 31.1 mph N/A   Mostly Cloudy
10:34 AM 41.0 °F 32.2 °F 35.6 °F 81% 30.19 in 10.0 mi SE 18.4 mph 33.4 mph N/A   Mostly Cloudy
10:54 AM 42.8 °F 33.8 °F 37.4 °F 81% 30.18 in 10.0 mi SSE 21.9 mph 32.2 mph N/A   Mostly Cloudy
11:14 AM 44.6 °F 36.4 °F 39.2 °F 81% 30.18 in 10.0 mi SE 20.7 mph 29.9 mph N/A   Scattered Clouds
11:34 AM 46.4 °F 38.5 °F 39.2 °F 76% 30.16 in 10.0 mi SE 21.9 mph 27.6 mph N/A   Scattered Clouds
11:54 AM 46.4 °F 39.0 °F 39.2 °F 76% 30.16 in 10.0 mi SSE 19.6 mph 31.1 mph N/A   Scattered Clouds
12:14 PM 46.4 °F 39.2 °F 39.2 °F 76% 30.15 in 10.0 mi SSE 18.4 mph 21.9 mph N/A   Scattered Clouds
12:32 PM 46.4 °F 38.5 °F 39.2 °F 76% 30.14 in 10.0 mi South 21.9 mph 31.1 mph N/A   Scattered Clouds
12:54 PM 46.4 °F 37.4 °F 39.2 °F 76% 30.12 in 10.0 mi SSE 28.8 mph 35.7 mph N/A   Scattered Clouds
1:14 PM 48.2 °F - 39.2 °F 71% 30.11 in 10.0 mi North - - N/A   Scattered Clouds
1:34 PM 48.2 °F - 41.0 °F 76% 30.09 in 10.0 mi SSE 25.3 mph 33.4 mph N/A   Clear
1:54 PM 50.0 °F - 41.0 °F 71% 30.08 in 10.0 mi SSE 27.6 mph 34.5 mph N/A   Scattered Clouds
2:14 PM 51.8 °F - 42.8 °F 71% 30.08 in 10.0 mi SSE 31.1 mph 36.8 mph N/A   Scattered Clouds
2:34 PM 51.8 °F - 42.8 °F 71% 30.07 in 10.0 mi SSE 26.5 mph 39.1 mph N/A   Scattered Clouds
2:54 PM 51.8 °F - 42.8 °F 71% 30.06 in 10.0 mi SSE 25.3 mph 33.4 mph N/A   Scattered Clouds
3:14 PM 53.6 °F - 44.6 °F 72% 30.05 in 10.0 mi SSE 23.0 mph 31.1 mph N/A   Scattered Clouds
3:34 PM 55.4 °F - 46.4 °F 72% 30.05 in 10.0 mi SSE 24.2 mph 34.5 mph N/A   Scattered Clouds
3:54 PM 55.4 °F - 44.6 °F 67% 30.04 in 10.0 mi SSE 24.2 mph 32.2 mph N/A   Scattered Clouds
4:14 PM 55.4 °F - 44.6 °F 67% 30.03 in 10.0 mi SSE 19.6 mph 29.9 mph N/A   Mostly Cloudy
4:34 PM 53.6 °F - 44.6 °F 72% 30.02 in 10.0 mi SSE 19.6 mph 26.5 mph N/A   Light Drizzle
4:54 PM 55.4 °F - 44.6 °F 67% 30.01 in 10.0 mi SSE 19.6 mph 27.6 mph N/A   Mostly Cloudy
5:14 PM 53.6 °F - 46.4 °F 77% 30.02 in 10.0 mi SSE 13.8 mph 23.0 mph 0.02 in Rain , Thunderstorm Thunderstorms and Rain
5:34 PM 51.8 °F - 46.4 °F 82% 30.05 in 7.0 mi SSW 16.1 mph 26.5 mph 0.11 in Rain Rain
5:54 PM 51.8 °F - 48.2 °F 88% 30.05 in 7.0 mi South 17.3 mph 20.7 mph 0.20 in Rain Light Rain
6:14 PM 51.8 °F - 48.2 °F 88% 30.06 in 10.0 mi South 12.7 mph 18.4 mph 0.03 in Rain Rain
6:34 PM 51.8 °F - 48.2 °F 88% 30.06 in 10.0 mi South 9.2 mph - 0.06 in Rain Light Rain
6:54 PM 51.8 °F - 48.2 °F 88% 30.06 in 10.0 mi South 12.7 mph - 0.10 in Rain Rain
7:14 PM 51.8 °F - 48.2 °F 88% 30.05 in 10.0 mi South 10.4 mph - 0.02 in Rain Light Rain
7:34 PM 51.8 °F - 48.2 °F 88% 30.06 in 10.0 mi South 11.5 mph - 0.04 in Rain Rain
7:54 PM 51.8 °F - 48.2 °F 88% 30.06 in 10.0 mi South 10.4 mph - 0.08 in Rain Light Rain
8:14 PM 51.8 °F - 48.2 °F 88% 30.06 in 10.0 mi SSW 12.7 mph - N/A Rain Rain
8:34 PM 51.8 °F - 48.2 °F 88% 30.07 in 10.0 mi SSW 10.4 mph - N/A   Light Drizzle
8:54 PM 51.8 °F - 48.2 °F 88% 30.08 in 10.0 mi SW 10.4 mph - N/A   Overcast
9:14 PM 50.0 °F - 48.2 °F 94% 30.10 in 10.0 mi West 13.8 mph - N/A   Overcast
9:34 PM 48.2 °F - 46.4 °F 93% 30.11 in 10.0 mi West 10.4 mph - N/A   Overcast
9:54 PM 48.2 °F - 46.4 °F 93% 30.12 in 7.0 mi West 8.1 mph - N/A   Overcast
10:14 PM 46.4 °F 42.4 °F 44.6 °F 93% 30.12 in 7.0 mi WSW 8.1 mph - N/A   Overcast
10:34 PM 46.4 °F 41.5 °F 44.6 °F 93% 30.13 in 7.0 mi West 10.4 mph - N/A   Overcast
10:54 PM 46.4 °F 42.4 °F 44.6 °F 93% 30.13 in 7.0 mi West 8.1 mph - N/A   Overcast
11:14 PM 44.6 °F 40.7 °F 42.8 °F 93% 30.14 in 10.0 mi West 6.9 mph - N/A   Overcast
11:34 PM 44.6 °F 39.7 °F 42.8 °F 93% 30.14 in 7.0 mi West 9.2 mph - N/A   Overcast
11:54 PM 44.6 °F 39.7 °F 42.8 °F 93% 30.14 in 7.0 mi WNW 9.2 mph - N/A   Overcast